Weather History for KBVN - February, 2012

Change the Weather History Date:

Tuesday, February 7, 2012

  Actual Average (KOFK) Record (KOFK)
Temperature  
Mean Temperature 26 °F 25 °F  
Max Temperature 30 °F 35 °F 71 °F (1987)
Min Temperature 21 °F 14 °F -23 °F (1895)
Degree Days  
Heating Degree Days 40 40  
Month to date heating degree days 286  
Since 1 July heating degree days 4308  
Cooling Degree Days 0 0  
Month to date cooling degree days 0  
Year to date cooling degree days 0  
Moisture  
Dew Point 22 °F    
Average Humidity 87    
Maximum Humidity 90    
Minimum Humidity 83    
Precipitation  
Precipitation 0.00 in 0.02 in 1.33 in (1928)
Month to date precipitation 0.17  
Year to date precipitation 0.76  
Snow  
Snow 0.00 in 0.30 in - ()
Month to date snowfall 1.6  
Since 1 July snowfall 18.9  
Snow Depth -    
Sea Level Pressure  
Sea Level Pressure 30.41 in    
Wind  
Wind Speed 16 mph (North)    
Max Wind Speed 22 mph    
Max Gust Speed 30 mph    
Visibility 8 miles    
Events Snow    
T = Trace of Precipitation, MM = Missing Value Source: NWS Daily Summary

Daily Weather History Graph

Daily Weather History Graph

Search for Another Location

Airport or City:

Trip Planner

Search our weather history database for the weather conditions in past years. The results will help you decide how hot, cold, wet, or windy it might be!

Date:

Astronomy

Feb. 07, 2012 Rise Set
Actual Time 7:38 AM CST 5:54 PM CST
Civil Twilight 7:09 AM CST 6:23 PM CST
Nautical Twilight 6:36 AM CST 6:56 PM CST
Astronomical Twilight 6:03 AM CST 7:29 PM CST
Moon 6:08 PM CST (2/7) 7:07 AM CST (2/7)
Length of Visible Light 11h 14m
Length of Day
10h 16m
Full, 100% of the Moon is Illuminated
Feb 7
Full
Feb 7
Full
Feb 14
Last Quarter
Feb 21
New
Feb 29
First Quarter

Hourly Weather History & Observations

Time (CST) Temp. Windchill Dew Point Humidity Pressure Visibility Wind Dir Wind Speed Gust Speed Precip Events Conditions
12:15 AM 30.4 °F 19.1 °F 26.4 °F 85% 30.26 in 10.0 mi North 16.1 mph 27.6 mph N/A   Overcast
12:35 AM 30.2 °F 18.5 °F 26.2 °F 85% 30.27 in 10.0 mi North 17.3 mph 29.9 mph N/A   Overcast
12:55 AM 30.2 °F 18.1 °F 26.4 °F 86% 30.27 in 10.0 mi North 18.4 mph 24.2 mph N/A   Overcast
1:15 AM 30.2 °F 17.8 °F 25.7 °F 83% 30.27 in 10.0 mi North 19.6 mph 28.8 mph N/A   Overcast
1:35 AM 30.2 °F 18.1 °F 26.1 °F 85% 30.28 in 10.0 mi North 18.4 mph 26.5 mph N/A   Overcast
1:55 AM 30.0 °F 17.9 °F 26.2 °F 86% 30.29 in 10.0 mi North 18.4 mph 24.2 mph N/A   Overcast
2:15 AM 29.7 °F 18.6 °F 26.1 °F 86% 30.30 in 10.0 mi North 15.0 mph 23.0 mph N/A   Overcast
2:35 AM 29.3 °F 18.2 °F 25.7 °F 86% 30.31 in 10.0 mi North 15.0 mph 21.9 mph N/A   Overcast
2:55 AM 29.1 °F 17.1 °F 25.5 °F 86% 30.31 in 10.0 mi North 17.3 mph 21.9 mph N/A   Overcast
3:15 AM 28.9 °F 17.3 °F 25.3 °F 86% 30.32 in 10.0 mi North 16.1 mph 25.3 mph N/A   Overcast
3:35 AM 28.9 °F 18.2 °F 25.2 °F 86% 30.32 in 10.0 mi North 13.8 mph 23.0 mph N/A   Overcast
3:55 AM 28.8 °F 17.0 °F 25.2 °F 86% 30.32 in 10.0 mi North 16.1 mph 21.9 mph N/A   Overcast
4:15 AM 28.4 °F 16.6 °F 25.3 °F 88% 30.32 in 7.0 mi North 16.1 mph 23.0 mph N/A   Overcast
4:35 AM 28.4 °F 15.8 °F 25.5 °F 89% 30.33 in 5.0 mi North 18.4 mph 23.0 mph N/A   Overcast
4:55 AM 28.2 °F 17.7 °F 25.5 °F 90% 30.34 in 5.0 mi North 12.7 mph 26.5 mph N/A   Overcast
5:15 AM 28.2 °F 15.5 °F 25.5 °F 90% 30.34 in 5.0 mi North 18.4 mph 21.9 mph N/A   Overcast
5:35 AM 28.0 °F 16.1 °F 25.3 °F 90% 30.34 in 5.0 mi North 16.1 mph 23.0 mph N/A   Overcast
5:55 AM 27.9 °F 16.3 °F 25.0 °F 89% 30.35 in 5.0 mi North 15.0 mph 21.9 mph N/A   Overcast
6:15 AM 27.7 °F 15.2 °F 24.8 °F 89% 30.35 in 5.0 mi North 17.3 mph 23.0 mph N/A   Overcast
6:35 AM 27.5 °F 14.6 °F 24.8 °F 90% 30.36 in 5.0 mi North 18.4 mph 24.2 mph N/A   Overcast
6:55 AM 27.5 °F 15.4 °F 24.8 °F 90% 30.37 in 5.0 mi North 16.1 mph 21.9 mph N/A   Overcast
7:15 AM 27.3 °F 15.6 °F 24.6 °F 90% 30.37 in 5.0 mi North 15.0 mph 23.0 mph N/A   Overcast
7:35 AM 27.3 °F 15.6 °F 24.6 °F 90% 30.38 in 5.0 mi North 15.0 mph 19.6 mph N/A   Overcast
7:55 AM 26.8 °F 14.1 °F 24.1 °F 90% 30.39 in 5.0 mi North 17.3 mph 23.0 mph N/A   Overcast
8:15 AM 26.6 °F 15.2 °F 23.9 °F 90% 30.39 in 10.0 mi North 13.8 mph 25.3 mph N/A   Overcast
8:35 AM 26.2 °F 13.0 °F 23.7 °F 90% 30.40 in 10.0 mi North 18.4 mph 24.2 mph N/A   Overcast
8:55 AM 26.2 °F 13.8 °F 23.5 °F 90% 30.41 in 10.0 mi North 16.1 mph 23.0 mph N/A   Overcast
9:15 AM 25.7 °F 13.5 °F 23.0 °F 89% 30.42 in 10.0 mi North 15.0 mph 26.5 mph N/A   Overcast
9:35 AM 25.2 °F 12.4 °F 22.5 °F 89% 30.42 in 10.0 mi North 16.1 mph 20.7 mph N/A   Overcast
9:55 AM 24.6 °F 10.5 °F 21.9 °F 89% 30.43 in 10.0 mi North 19.6 mph 25.3 mph N/A   Overcast
10:15 AM 24.1 °F 9.8 °F 21.4 °F 89% 30.43 in 10.0 mi North 19.6 mph 26.5 mph N/A   Overcast
10:35 AM 24.3 °F 10.8 °F 21.4 °F 89% 30.44 in 10.0 mi North 17.3 mph 23.0 mph N/A   Overcast
10:55 AM 23.5 °F 10.8 °F 20.7 °F 89% 30.45 in 10.0 mi North 15.0 mph 26.5 mph N/A   Overcast
11:15 AM 23.7 °F 11.0 °F 20.7 °F 88% 30.46 in 10.0 mi North 15.0 mph 20.7 mph N/A   Overcast
11:35 AM 23.0 °F 9.2 °F 19.9 °F 88% 30.46 in 10.0 mi North 17.3 mph 25.3 mph N/A   Overcast
11:55 AM 23.2 °F 9.0 °F 20.1 °F 88% 30.46 in 10.0 mi North 18.4 mph 24.2 mph N/A   Overcast
12:15 PM 22.6 °F 7.1 °F 19.4 °F 87% 30.46 in 10.0 mi North 21.9 mph 27.6 mph N/A   Overcast
12:35 PM 22.5 °F 7.6 °F 19.2 °F 87% 30.46 in 10.0 mi North 19.6 mph 27.6 mph N/A   Overcast
12:55 PM 22.5 °F 8.9 °F 19.0 °F 87% 30.46 in 5.0 mi North 16.1 mph 24.2 mph N/A   Overcast
1:15 PM 22.6 °F 7.9 °F 18.9 °F 85% 30.45 in 2.5 mi North 19.6 mph 26.5 mph N/A Snow Light Snow
1:35 PM 22.8 °F 8.5 °F 18.7 °F 84% 30.46 in 2.0 mi NNW 18.4 mph 24.2 mph N/A Snow Light Snow
1:55 PM 22.8 °F 8.9 °F 19.0 °F 85% 30.46 in 2.5 mi North 17.3 mph 24.2 mph N/A Snow Light Snow
2:15 PM 22.8 °F 8.5 °F 18.9 °F 85% 30.46 in 2.5 mi North 18.4 mph 23.0 mph N/A Snow Light Snow
2:35 PM 23.0 °F 9.2 °F 18.7 °F 84% 30.46 in 2.0 mi North 17.3 mph 25.3 mph N/A Snow Light Snow
2:55 PM 23.2 °F 10.3 °F 18.7 °F 83% 30.46 in 3.0 mi North 15.0 mph - N/A Snow Light Snow
3:15 PM 23.0 °F 8.7 °F 18.5 °F 83% 30.46 in 5.0 mi North 18.4 mph 24.2 mph N/A   Haze
3:35 PM 22.8 °F 8.5 °F 18.9 °F 85% 30.46 in 5.0 mi North 18.4 mph 23.0 mph N/A   Overcast
3:55 PM 22.5 °F 9.9 °F 19.0 °F 87% 30.47 in 7.0 mi North 13.8 mph 23.0 mph N/A   Overcast
4:15 PM 22.1 °F 10.6 °F 19.0 °F 88% 30.47 in 5.0 mi North 11.5 mph - N/A   Overcast
4:35 PM 22.1 °F 10.6 °F 18.9 °F 87% 30.48 in 7.0 mi North 11.5 mph 18.4 mph N/A   Overcast
4:55 PM 21.9 °F 9.2 °F 18.5 °F 87% 30.47 in 10.0 mi North 13.8 mph - N/A   Overcast
5:15 PM 22.1 °F 9.5 °F 18.5 °F 86% 30.47 in 10.0 mi North 13.8 mph 18.4 mph N/A   Overcast
5:35 PM 21.9 °F 10.4 °F 18.5 °F 87% 30.47 in 10.0 mi North 11.5 mph - N/A   Overcast
5:55 PM 21.7 °F 9.6 °F 18.1 °F 86% 30.47 in 10.0 mi North 12.7 mph - N/A   Overcast
6:15 PM 21.7 °F 9.6 °F 18.1 °F 86% 30.49 in 10.0 mi North 12.7 mph - N/A   Overcast
6:35 PM 21.7 °F 11.5 °F 17.6 °F 84% 30.49 in 10.0 mi North 9.2 mph - N/A   Overcast
6:55 PM 21.7 °F 12.3 °F 17.6 °F 84% 30.49 in 10.0 mi North 8.1 mph - N/A   Overcast
7:15 PM 21.7 °F 11.5 °F 17.6 °F 84% 30.49 in 10.0 mi NNW 9.2 mph - N/A   Overcast
7:35 PM 21.9 °F 13.4 °F 17.8 °F 84% 30.49 in 10.0 mi NNW 6.9 mph - N/A   Overcast
7:55 PM 21.9 °F 13.4 °F 17.6 °F 83% 30.49 in 10.0 mi NNW 6.9 mph - N/A   Overcast
8:15 PM 21.7 °F 13.2 °F 17.4 °F 83% 30.50 in 10.0 mi NNW 6.9 mph - N/A   Overcast
8:35 PM 21.6 °F 12.1 °F 17.4 °F 84% 30.50 in 10.0 mi NNW 8.1 mph - N/A   Overcast
8:55 PM 21.2 °F 9.5 °F 16.9 °F 83% 30.50 in 10.0 mi NNW 11.5 mph - N/A   Overcast
9:15 PM 21.2 °F 9.5 °F 16.7 °F 83% 30.51 in 10.0 mi NNW 11.5 mph - N/A   Overcast
9:35 PM 21.2 °F 10.9 °F 16.5 °F 82% 30.51 in 10.0 mi NNW 9.2 mph - N/A   Overcast
9:55 PM 21.0 °F 10.6 °F 16.2 °F 81% 30.51 in 10.0 mi NNW 9.2 mph - N/A   Overcast
10:15 PM 21.0 °F 11.4 °F 16.0 °F 81% 30.51 in 10.0 mi North 8.1 mph - N/A   Overcast
10:35 PM 20.8 °F 10.4 °F 15.8 °F 81% 30.51 in 10.0 mi NNW 9.2 mph - N/A   Overcast
10:55 PM 20.8 °F 11.2 °F 15.3 °F 79% 30.50 in 10.0 mi NNW 8.1 mph - N/A   Overcast
11:15 PM 20.8 °F 16.0 °F 15.4 °F 80% 30.51 in 10.0 mi NW 3.5 mph - N/A   Overcast
11:35 PM 20.8 °F 16.0 °F 15.6 °F 80% 30.51 in 10.0 mi North 3.5 mph - N/A   Overcast
11:55 PM 20.8 °F 13.2 °F 15.8 °F 81% 30.50 in 10.0 mi NNW 5.8 mph - N/A   Overcast